Latest Weather Observations for Warwick

IDQ60801

Issued at 7:05 pm EST Saturday 19 April 2014 (issued every 30 minutes, with the page automatically refreshed every 10 minutes)

About weather observations | Map of weather stations | Latest weather observations for QLD | Other Formats
Station Details ID: 041525 Name: WARWICK Lat: -28.21 Lon: 152.10 Height: 475.4 m
Data from the previous 72 hours. | See also: Recent months at Warwick
Date/Time
EST
Temp
°C
App
Temp
°C
Dew
Point
Rel
Hum
%
Delta-T
°C
Wind Press
QNH
hPa
Press
MSL
hPa
Rain
since 9 am
mm
Dir
 
Spd
km/h
Gust
km/h
Spd
kts
Gust
kts
19/07:00pm 18.4 16.0 6.9 47 5.9 W 9 11 5 6 1016.3 - 0.0
19/06:30pm 18.7 16.8 7.6 48 5.8 W 7 9 4 5 1015.9 - 0.0
19/06:00pm 18.8 17.0 7.9 49 5.7 W 7 11 4 6 1015.4 1013.9 0.0
19/05:30pm 19.5 17.3 7.7 46 6.2 W 9 13 5 7 1015.0 - 0.0
19/05:00pm 21.7 18.5 7.0 38 7.7 WSW 13 20 7 11 1014.8 - 0.0
19/04:30pm 23.2 19.4 5.8 32 9.0 WSW 15 22 8 12 1014.7 - 0.0
19/04:00pm 23.5 20.2 6.6 33 8.9 W 13 19 7 10 1014.4 - 0.0
19/03:30pm 24.1 20.4 6.5 32 9.3 WSW 15 24 8 13 1014.3 - 0.0
19/03:00pm 24.2 19.7 6.1 31 9.5 WSW 19 28 10 15 1014.4 1012.9 0.0
19/02:30pm 24.1 20.1 6.5 32 9.3 WSW 17 26 9 14 1014.4 - 0.0
19/02:00pm 24.3 19.7 6.5 32 9.4 SW 20 30 11 16 1014.4 - 0.0
19/01:30pm 23.5 19.3 5.5 31 9.3 W 17 28 9 15 1014.7 - 0.0
19/01:00pm 23.6 18.4 5.3 30 9.4 SSW 22 28 12 15 1015.2 - 0.0
19/12:30pm 23.4 19.2 5.9 32 9.1 W 17 26 9 14 1015.6 - 0.0
19/12:00pm 23.7 18.8 5.2 30 9.5 W 20 37 11 20 1016.2 1014.7 0.0
19/11:30am 22.5 17.5 4.7 31 9.0 WSW 20 28 11 15 1016.7 - 0.0
19/11:00am 21.5 19.6 7.5 40 7.4 SE 7 11 4 6 1017.2 - 0.0
19/10:30am 20.7 18.2 6.6 40 7.3 WSW 9 15 5 8 1017.8 - 0.0
19/10:00am 20.4 19.8 7.2 42 6.9 CALM 0 0 0 0 1018.1 - 0.0
19/09:30am 17.9 17.4 7.7 51 5.3 CALM 0 0 0 0 1018.3 - 0.0
19/09:00am 15.4 14.9 7.8 60 3.9 CALM 0 0 0 0 1018.6 1017.2 0.0
19/08:30am 12.7 12.1 7.3 69 2.7 CALM 0 0 0 0 1018.7 - 0.0
19/08:00am 10.4 9.7 6.9 79 1.7 CALM 0 0 0 0 1018.7 - 0.0
19/07:30am 8.1 7.1 5.7 85 1.1 CALM 0 4 0 2 1018.5 - 0.0
19/07:00am 6.3 5.1 4.7 89 0.7 CALM 0 0 0 0 1018.3 - 0.0
19/06:30am 5.5 3.2 4.8 95 0.3 NE 6 7 3 4 1018.1 - 0.0
19/06:00am 5.0 3.7 4.3 95 0.3 NE 0 0 0 0 1017.9 1016.4 0.0
19/05:30am 6.5 5.5 5.6 94 0.4 CALM 0 0 0 0 1017.8 - 0.0
19/05:00am 6.3 5.4 5.9 97 0.2 CALM 0 0 0 0 1017.6 - 0.0
19/04:30am 6.2 5.2 5.5 95 0.3 CALM 0 0 0 0 1017.4 - 0.0
19/04:00am 6.4 5.4 5.7 95 0.3 CALM 0 0 0 0 1017.2 - 0.0
19/03:30am 6.7 5.8 6.1 96 0.3 CALM 0 0 0 0 1017.0 - 0.0
19/03:00am 7.0 6.0 5.7 91 0.6 CALM 0 0 0 0 1017.2 1015.8 0.0
19/02:30am 7.6 6.7 5.9 89 0.8 CALM 0 0 0 0 1017.2 - 0.0
19/02:00am 8.8 7.8 5.6 80 1.5 CALM 0 0 0 0 1017.2 - 0.0
19/01:30am 7.9 6.9 5.5 85 1.1 CALM 0 0 0 0 1017.4 - 0.0
19/01:00am 8.4 7.6 6.5 88 0.9 CALM 0 0 0 0 1017.4 - 0.0
19/12:30am 7.9 7.0 6.2 89 0.8 SW 0 0 0 0 1017.4 - 0.0
19/12:00am 9.3 8.6 6.8 84 1.2 WNW 0 0 0 0 1017.2 1015.8 0.0
 
Date/Time
EST
Temp
°C
App
Temp
°C
Dew
Point
Rel
Hum
%
Delta-T
°C
Wind Press
QNH
hPa
Press
MSL
hPa
Rain
since 9 am
mm
Dir
 
Spd
km/h
Gust
km/h
Spd
kts
Gust
kts
18/11:30pm 9.6 8.8 6.7 82 1.4 CALM 0 0 0 0 1017.5 - 0.0
18/11:00pm 10.2 9.5 7.1 81 1.5 CALM 0 0 0 0 1017.5 - 0.0
18/10:30pm 11.2 10.6 7.3 77 1.9 CALM 0 0 0 0 1017.4 - 0.0
18/10:00pm 11.5 9.7 7.2 75 2.1 E 6 7 3 4 1017.6 - 0.0
18/09:30pm 11.0 10.2 6.7 75 2.1 CALM 0 0 0 0 1017.6 - 0.0
18/09:00pm 12.7 11.7 7.5 70 2.6 ENE 2 7 1 4 1017.5 1016.0 0.0
18/08:30pm 12.7 12.2 7.9 72 2.4 CALM 0 0 0 0 1017.0 - 0.0
18/08:00pm 16.3 14.5 7.0 54 4.7 WNW 6 11 3 6 1016.9 - 0.0
18/07:30pm 17.3 15.4 7.4 52 5.1 WNW 7 11 4 6 1016.5 - 0.0
18/07:00pm 18.0 15.9 6.8 48 5.7 W 7 11 4 6 1016.1 - 0.0
18/06:30pm 17.0 15.4 8.2 56 4.6 W 6 9 3 5 1015.9 - 0.0
18/06:00pm 16.8 14.7 6.7 51 5.1 WNW 7 9 4 5 1015.6 1014.1 0.0
18/05:30pm 19.8 17.6 6.3 41 6.9 W 7 11 4 6 1015.3 - 0.0
18/05:00pm 22.4 18.8 5.1 32 8.8 WSW 13 19 7 10 1014.9 - 0.0
18/04:30pm 23.5 19.3 5.8 32 9.2 WSW 17 24 9 13 1014.6 - 0.0
18/04:00pm 24.1 20.4 6.5 32 9.3 WSW 15 26 8 14 1014.4 - 0.0
18/03:30pm 24.1 20.0 6.2 31 9.4 WSW 17 24 9 13 1014.2 - 0.0
18/03:00pm 24.3 21.0 8.1 35 8.8 WSW 15 24 8 13 1014.3 1012.8 0.0
18/02:30pm 24.2 21.5 7.4 34 9.0 W 11 24 6 13 1014.4 - 0.0
18/02:00pm 24.1 20.7 7.5 34 8.9 W 15 24 8 13 1014.6 - 0.0
18/01:30pm 23.9 21.2 7.2 34 8.9 W 11 17 6 9 1014.9 - 0.0
18/01:00pm 23.4 21.2 7.8 36 8.4 WSW 9 22 5 12 1015.2 - 0.0
18/12:30pm 23.1 20.6 8.3 38 8.0 W 11 19 6 10 1015.6 - 0.0
18/12:00pm 22.3 19.9 8.7 41 7.4 NW 11 20 6 11 1016.1 1014.6 0.0
18/11:30am 21.4 20.3 10.7 50 6.0 W 7 20 4 11 1016.8 - 0.0
18/11:00am 21.3 18.7 9.2 46 6.6 WNW 13 19 7 10 1017.4 - 0.0
18/10:30am 21.1 19.2 9.1 46 6.5 W 9 13 5 7 1017.8 - 0.0
18/10:00am 19.8 20.1 13.3 66 3.8 W 4 11 2 6 1018.1 - 0.0
18/09:30am 18.2 18.8 13.0 71 3.0 WSW 2 7 1 4 1018.4 - 0.0
18/09:00am 16.8 17.6 12.6 76 2.4 CALM 0 0 0 0 1018.5 1017.1 0.0
18/08:30am 15.7 16.4 12.1 79 2.0 CALM 0 0 0 0 1018.5 - 0.0
18/08:00am 12.9 13.1 10.6 86 1.2 CALM 0 0 0 0 1018.6 - 0.0
18/07:30am 10.9 10.8 9.3 90 0.8 CALM 0 0 0 0 1018.5 - 0.0
18/07:00am 9.7 9.4 8.7 93 0.5 CALM 0 0 0 0 1018.2 - 0.0
18/06:30am 7.6 7.0 7.2 97 0.2 CALM 0 4 0 2 1018.1 - 0.0
18/06:00am 8.1 7.5 7.5 96 0.3 CALM 0 0 0 0 1017.8 1016.3 0.0
18/05:30am 10.6 9.4 9.6 93 0.5 NE 6 7 3 4 1017.6 - 0.0
18/05:00am 9.1 7.7 8.7 97 0.2 ENE 6 7 3 4 1017.5 - 0.0
18/04:30am 9.2 7.8 8.8 97 0.2 ENE 6 7 3 4 1017.5 - 0.0
18/04:00am 9.4 8.1 9.2 99 0.1 ENE 6 7 3 4 1017.4 - 0.0
18/03:30am 9.7 8.2 9.3 97 0.2 ENE 7 9 4 5 1017.4 - 0.0
18/03:00am 9.6 9.5 9.4 99 0.1 CALM 0 0 0 0 1017.6 1016.1 0.0
18/02:30am 12.4 12.8 11.1 92 0.7 CALM 0 0 0 0 1017.7 - 0.0
18/02:00am 12.2 12.6 11.1 93 0.6 CALM 0 0 0 0 1017.9 - 0.0
18/01:30am 12.1 12.5 11.2 94 0.5 CALM 0 0 0 0 1018.0 - 0.0
18/01:00am 12.5 12.9 11.2 92 0.7 CALM 0 0 0 0 1018.3 - 0.0
18/12:30am 13.0 13.5 11.5 91 0.8 CALM 0 0 0 0 1018.5 - 0.0
18/12:00am 12.9 13.3 11.2 89 0.9 CALM 0 0 0 0 1018.7 1017.3 0.0
 
Date/Time
EST
Temp
°C
App
Temp
°C
Dew
Point
Rel
Hum
%
Delta-T
°C
Wind Press
QNH
hPa
Press
MSL
hPa
Rain
since 9 am
mm
Dir
 
Spd
km/h
Gust
km/h
Spd
kts
Gust
kts
17/11:30pm 13.3 13.2 10.7 84 1.4 NE 2 6 1 3 1018.5 - 0.0
17/11:00pm 14.4 13.9 10.9 79 1.9 SE 4 11 2 6 1018.6 - 0.0
17/10:30pm 13.6 13.4 9.2 75 2.3 CALM 0 0 0 0 1018.9 - 0.0
17/10:00pm 13.2 12.9 8.5 73 2.4 CALM 0 0 0 0 1018.7 - 0.0
17/09:30pm 12.8 12.6 9.1 78 1.9 CALM 0 0 0 0 1018.5 - 0.0
17/09:00pm 13.4 12.7 8.7 73 2.4 W 2 9 1 5 1018.3 1016.9 0.0
17/08:30pm 15.0 14.3 8.4 64 3.4 NNW 2 7 1 4 1018.1 - 0.0
17/08:00pm 15.1 13.3 8.1 63 3.6 N 7 9 4 5 1017.9 - 0.0
17/07:30pm 17.5 17.3 9.0 57 4.5 CALM 0 7 0 4 1017.5 - 0.0
17/07:00pm 18.7 16.8 9.0 53 5.2 W 9 11 5 6 1017.1 - 0.0
17/06:30pm 19.4 17.8 8.7 50 5.7 W 7 13 4 7 1016.8 - 0.0
17/06:00pm 19.3 17.9 9.5 53 5.3 W 7 9 4 5 1016.5 1015.1 0.0
17/05:30pm 20.0 18.7 10.0 52 5.5 W 7 11 4 6 1016.3 - 0.0
17/05:00pm 22.1 20.1 10.0 46 6.7 WSW 11 17 6 9 1016.0 - 0.0
17/04:30pm 23.3 21.4 9.1 40 7.8 WSW 9 15 5 8 1015.7 - 0.0
17/04:00pm 24.1 21.2 8.3 36 8.6 WSW 13 20 7 11 1015.4 - 0.0
17/03:30pm 24.1 19.7 8.8 37 8.4 SW 22 30 12 16 1015.4 - 0.0
17/03:00pm 24.8 21.9 8.3 35 9.0 W 13 22 7 12 1015.4 1013.9 0.0
17/02:30pm 24.8 21.3 8.6 35 8.9 SW 17 26 9 14 1015.5 - 0.0
17/02:00pm 24.8 20.7 8.6 35 8.9 SSW 20 28 11 15 1015.8 - 0.0
17/01:30pm 24.1 22.3 9.5 39 8.1 SSW 9 19 5 10 1016.0 - 0.0
17/01:00pm 22.9 21.4 10.4 45 7.0 WSW 9 15 5 8 1016.5 - 0.0
17/12:30pm 23.0 21.3 9.9 43 7.3 W 9 15 5 8 1016.9 - 0.0
17/12:00pm 22.9 21.1 9.3 42 7.5 WNW 9 15 5 8 1017.5 1016.0 0.0
17/11:30am 21.9 21.0 11.5 51 5.9 SW 7 20 4 11 1018.0 - 0.0
17/11:00am 21.3 20.8 12.2 56 5.2 WSW 6 15 3 8 1018.6 - 0.0
17/10:30am 20.1 19.6 12.6 62 4.3 SW 7 13 4 7 1018.8 - 0.0
17/10:00am 19.5 19.0 12.1 62 4.2 SSE 6 13 3 7 1019.1 - 0.0
17/09:30am 18.2 17.7 10.8 62 4.1 E 4 7 2 4 1019.3 - 0.0
17/09:00am 16.1 16.7 11.8 75 2.4 CALM 0 0 0 0 1019.6 1018.1 0.0
17/08:30am 14.2 14.6 11.3 83 1.6 CALM 0 0 0 0 1019.9 - 0.0
17/08:00am 12.3 12.4 10.2 87 1.1 CALM 0 0 0 0 1019.8 - 0.0
17/07:30am 10.9 10.8 9.5 91 0.7 CALM 0 0 0 0 1019.4 - 0.0
17/07:00am 9.8 9.5 8.8 93 0.5 CALM 0 0 0 0 1018.9 - 0.0
17/06:30am 9.6 9.0 9.0 96 0.3 NNE 2 7 1 4 1018.7 - 0.0
17/06:00am 8.7 8.3 8.3 97 0.2 CALM 0 0 0 0 1018.4 1017.0 0.0
17/05:30am 8.6 8.1 7.8 95 0.4 CALM 0 0 0 0 1018.2 - 0.0
17/05:00am 8.5 8.0 7.9 96 0.3 CALM 0 0 0 0 1017.9 - 0.0
17/04:30am 9.1 8.7 8.1 93 0.5 CALM 0 0 0 0 1017.8 - 0.0
17/04:00am 10.2 10.0 9.2 93 0.5 CALM 0 0 0 0 1017.6 - 0.0
17/03:30am 9.5 9.2 8.7 95 0.4 CALM 0 0 0 0 1017.5 - 0.0
17/03:00am 12.0 12.2 10.5 90 0.8 CALM 0 0 0 0 1017.4 1015.9 0.0
17/02:30am 11.4 11.5 10.3 93 0.6 CALM 0 0 0 0 1017.5 - 0.0
17/02:00am 12.4 12.6 10.7 89 0.9 CALM 0 0 0 0 1017.5 - 0.0
17/01:30am 12.6 11.8 10.9 89 0.9 NNE 6 9 3 5 1017.7 - 0.0
17/01:00am 12.0 10.9 10.5 90 0.8 NE 7 11 4 6 1017.9 - 0.0
17/12:30am 12.9 12.8 10.8 87 1.1 ENE 2 7 1 4 1018.0 - 0.0
17/12:00am 12.5 12.8 10.8 89 0.9 CALM 0 0 0 0 1017.9 1016.4 0.0
 
Date/Time
EST
Temp
°C
App
Temp
°C
Dew
Point
Rel
Hum
%
Delta-T
°C
Wind Press
QNH
hPa
Press
MSL
hPa
Rain
since 9 am
mm
Dir
 
Spd
km/h
Gust
km/h
Spd
kts
Gust
kts
16/11:30pm 13.4 13.7 10.8 84 1.4 CALM 0 0 0 0 1017.8 - 0.0
16/11:00pm 13.4 12.4 10.4 82 1.6 NE 6 7 3 4 1017.8 - 0.0
16/10:30pm 12.8 12.2 10.3 85 1.3 ENE 4 7 2 4 1017.8 - 0.0
16/10:00pm 14.1 14.3 10.6 79 1.9 CALM 0 0 0 0 1017.8 - 0.0
16/09:30pm 14.5 14.8 10.8 78 2.0 CALM 0 6 0 3 1017.7 - 0.0
16/09:00pm 14.7 15.0 11.0 78 2.0 CALM 0 0 0 0 1017.6 1016.1 0.0
16/08:30pm 14.3 14.7 11.2 81 1.7 CALM 0 0 0 0 1017.4 - 0.0
16/08:00pm 16.4 16.8 11.3 72 2.8 CALM 0 0 0 0 1017.0 - 0.0
16/07:30pm 16.2 16.7 11.5 73 2.6 CALM 0 0 0 0 1016.8 - 0.0

Other Formats:

Comma delimited format used in spreadsheet applications
http://www.bom.gov.au/fwo/IDQ60801/IDQ60801.94555.axf

JavaScript Object Notation format (JSON) in row-major order
http://www.bom.gov.au/fwo/IDQ60801/IDQ60801.94555.json